Location: B
(0.0000°N, 0.0000°E)
Time: 04:37:07
(UTC+01:00)

ISS - All Passes

Search period start: 27 March 2015 00:00
Search period end: 06 April 2015 01:00
Orbit: 396 x 406 km, 51.6° (Epoch: 26 March)

Date Brightness Start Highest point End Pass type
(mag) Time Alt. Az. Time Alt. Az. Time Alt. Az.
27 Mar - 08:46:47 10° NNE 08:48:55 17° NE 08:51:09 10° E daylight
27 Mar - 10:23:28 10° W 10:25:13 13° SW 10:26:51 10° SSW daylight
27 Mar - 20:21:29 10° SE 20:22:16 11° SE 20:23:15 10° ESE visible
27 Mar - 21:55:57 10° WSW 21:58:36 22° NW 22:01:11 10° N night (unlit)
28 Mar - 09:28:52 10° WNW 09:31:52 36° SW 09:34:52 10° SSE daylight
28 Mar - 21:02:02 10° SW 21:05:17 67° NW 21:08:31 10° NNE visible
29 Mar - 09:35:23 10° NNW 09:38:33 65° NE 09:41:45 10° SE daylight
29 Mar - 21:08:54 10° SSW 21:11:57 36° SE 21:15:00 10° ENE visible
30 Mar - 08:42:42 10° N 08:45:11 21° NE 08:47:44 10° ESE daylight
30 Mar - 10:20:35 10° WSW 10:21:30 11° SW 10:22:15 10° SW daylight
30 Mar - 20:16:51 10° SSE 20:18:31 13° SE 20:20:18 10° E daylight
30 Mar - 21:52:29 10° W 21:54:49 18° NW 21:57:04 10° N visible
31 Mar - 09:25:12 10° WNW 09:28:02 28° SW 09:30:52 10° S daylight
31 Mar - 20:58:12 10° SW 21:01:23 50° NW 21:04:33 10° NNE visible
01 Apr - 08:31:25 10° NW 08:34:38 86° ENE 08:37:51 10° SE daylight
01 Apr - 20:04:49 10° SSW 20:07:58 46° SE 20:11:07 10° NE daylight
02 Apr - 07:38:27 10° N 07:41:11 26° NE 07:43:58 10° ESE visible
02 Apr - 19:12:20 10° SSE 19:14:28 17° SE 19:16:42 10° E daylight
02 Apr - 20:48:50 10° W 20:50:46 14° NW 20:52:34 10° NNW visible
03 Apr - 08:21:18 10° WNW 08:23:56 23° SW 08:26:32 10° S daylight
03 Apr - 19:54:09 10° SW 19:57:14 39° NW 20:00:17 10° NNE daylight
04 Apr - 07:27:14 10° NW 07:30:25 72° SW 07:33:38 10° SSE visible
04 Apr - 19:00:30 10° SSW 19:03:43 61° SE 19:06:57 10° NE daylight
05 Apr - 06:34:00 10° NNW 06:36:54 33° NE 06:39:52 10° ESE visible
05 Apr - 18:07:42 10° S 18:10:09 20° SE 18:12:41 10° ENE daylight
05 Apr - 19:45:08 10° WNW 19:46:27 12° NW 19:47:38 10° NNW daylight
